User: anonymous   Login
Location: Unspecified
(0.0000°N, 0.0000°E)
Time: 22:20:39
(UTC+00:00)
Language:

STARLINK-30561 - Orbit

View from above orbital plane
View from above orbital plane
View from above satellite
View from above satellite

Ground track
Ground track

The orbit is defined by the following mean orbital elements,

1 58032U          26145.24658483 +.00000000 +00000-0 +40782-4 0 00004
2 58032  53.1607  82.8495 0001288  85.1264 274.9884 15.30201868    09
Epoch (UTC): 25 May 2026 05:55:04
Eccentricity: 0.0001288
inclination: 53.1607°
perigee height: 474 km
apogee height: 476 km
right ascension of ascending node: 82.8495°
argument of perigee: 85.1264°
revolutions per day: 15.30201868
mean anomaly at epoch: 274.9884°

The dashed part of the orbit path shows where the satellite is in the earth's shadow,  

DLR